Regional Weather Roundup
Issued by NWS

Home | Current Version | Previous Version | Text Only | Print | Product List | Glossary Off
Versions: 1 2 3 4 5 6 7 8 9 10 11 12 13 14 15 16 17 18 19 20 21 22 23 24 25 26 27 28 29 30 31 32 33 34 35 36 37 38 39 40 41 42 43 44 45 46 47 48 49 50

000
ASUS45 KBOI 241210
RWRID
WEATHER ROUNDUP FOR IDAHO
NATIONAL WEATHER SERVICE BOISE ID
600 AM MDT THU JUL 24 2014

NOTE: "FAIR" INDICATES FEW OR NO CLOUDS BELOW 12000 FEET
WITH NO SIGNIFICANT WEATHER AND/OR OBSTRUCTIONS TO VISIBILITY

IDZ012-014-241300-
SOUTHWEST IDAHO


CITY           SKY/WX    TMP DP  RH WIND       PRES   REMARKS
BOISE          CLEAR     59  46  62 NW8       30.11R
CALDWELL       CLEAR     57  39  51 NW8       30.14R
MOUNTAIN HOME  CLEAR     61  46  59 NW21      30.09R
$$

IDZ016-017-241300-
SOUTHCENTRAL IDAHO


CITY           SKY/WX    TMP DP  RH WIND       PRES   REMARKS
BURLEY         CLEAR     63  42  46 SW15      30.08R
JEROME         CLEAR     60  47  61 SW15      30.09R
TWIN FALLS     CLEAR     63  44  50 SW13G21   30.09R
$$

IDZ019>023-241300-
SOUTHEAST IDAHO


CITY           SKY/WX    TMP DP  RH WIND       PRES   REMARKS
IDAHO FALLS    PTCLDY    65  43  44 SW16      30.05R
POCATELLO      PTCLDY    67  34  29 SW16      30.07R
REXBURG        PTCLDY    68  38  33 S12       30.04R
$$

IDZ006-010-011-018-031-032-241300-
CENTRAL IDAHO MOUNTAINS


CITY           SKY/WX    TMP DP  RH WIND       PRES   REMARKS
MCCALL         CLOUDY    49  43  80 CALM      30.11S
HAILEY         CLEAR     52  39  62 NW9       30.11R
STANLEY          N/A     41  33  73 CALM      30.17S
SALMON         CLEAR     54  43  66 SE3       29.97S
CHALLIS        CLEAR     59  37  44 SE5       30.04R
$$

IDZ002-004-006-007-026-241300-
NORTHERN IDAHO


CITY           SKY/WX    TMP DP  RH WIND       PRES   REMARKS
LEWISTON       MOCLDY    58  43  57 SW7       30.12R
LOWELL           N/A     62  46  55 CALM      30.10R
COEUR D`ALENE  MOCLDY    54  45  71 CALM      30.07R
MULLAN PASS    CLOUDY    40  38  93 VRB5      30.13S
$$


USA.gov is the U.S. government's official web portal to all federal, state and local government web resources and services.